Regional Weather Roundup
Issued by NWS Bismarck, ND

Home | Current Version | Previous Version | Text Only | Print | Product List | Glossary On
Versions: 1 2 3 4 5 6 7 8 9 10 11 12 13 14 15 16 17 18 19 20 21 22 23 24 25 26 27 28 29 30 31 32 33 34 35 36 37 38 39 40 41 42 43 44 45 46 47 48 49 50
000
ASUS43 KBIS 240210
RWRBIS

NWR BROADCAST TEXT
NATIONAL WEATHER SERVICE BISMARCK ND
900 PM CDT THU MAR 23 2017

NOTE: "FAIR" INDICATES FEW OR NO CLOUDS BELOW 12,000 FEET WITH NO
SIGNIFICANT WEATHER AND/OR OBSTRUCTIONS TO VISIBILITY.


CITY           SKY/WX    TMP DP  RH WIND       PRES   REMARKS
WILLISTON      CLOUDY    46  37  71 N6        29.87R
MINOT          FAIR      35  31  85 NW8       29.88R
MINOT AFB      FAIR      33  30  88 N6        29.88R
BISMARCK       CLOUDY    40  38  93 W5        29.86R
DICKINSON      CLOUDY    42  38  85 SW10      29.85R
GARRISON         N/A     34  31  88 NW8       29.87R
HETTINGER ARPT CLOUDY    40  39  97 W5        29.89R
JAMESTOWN      CLOUDY    35  34  96 N5        29.81R FOG
HAZEN          FAIR      34  30  86 CALM      29.89R
MANDAN         CLOUDY    39  39 100 NW5       29.85R
RUGBY            N/A     30  30 100 NW5       29.86R
STANLEY        FAIR      37  37 100 N6        29.90R
TIOGA          CLOUDY    37  37 100 NE3       29.89R
WATFORD CITY   CLOUDY    46  37  71 CALM      29.86R
$$

CITY           SKY/WX    TMP DP  RH WIND       PRES   REMARKS
GRAND FORKS    CLOUDY    36  35  96 SW5       29.86R
GRAND FORKS AF CLOUDY    35  35  99 NW6       29.87R
DEVILS LAKE    FAIR      33  32  96 CALM      29.85R
FARGO          CLOUDY    36  35  96 E5        29.84R
GRAFTON        MOCLDY    34  34 100 S6        29.86S
GWINNER        CLOUDY    36  36 100 MISG      29.81R FOG
LANGDON        FAIR      34  34 100 NW5       29.85R
ROLLA          FAIR      34  32  93 NW14      29.85R
$$

CITY           SKY/WX    TMP DP  RH WIND       PRES   REMARKS
ABERDEEN       MOCLDY    35  32  88 NE8       29.78R
MOBRIDGE       CLOUDY    43  36  76 N12       29.80R
BUFFALO          N/A     42  41  96 SW7       29.85R
RAPID CITY     CLOUDY    44  39  82 N21G31    29.87R
GLASGOW        FAIR      49  30  48 N6        29.87R
SIDNEY         FAIR      47  38  71 N5        29.86R
WOLF POINT     MOCLDY    55  33  43 NW10      29.86R
GLENDIVE       FAIR      51  33  50 NW10      29.87R
MILES CITY     MOCLDY    51  39  63 W7        29.88R
BAKER          MOCLDY    47  38  71 SW14      29.88R
$$

CITY           SKY/WX    TMP DP  RH WIND       PRES   REMARKS
BILLINGS       FAIR      50  35  56 S5        29.92R
GREAT FALLS    FAIR      42  18  37 W10       29.94R
REGINA         PTCLDY    37  27  65 NE8       29.89R
ESTEVAN        PTCLDY    34  32  93 NW8       29.88R
$$




USA.gov is the U.S. government's official web portal to all federal, state and local government web resources and services.